Weather Roundup
Issued by NWS Springfield, MO

Home | Current Version | Previous Version | Text Only | Print | Product List | Glossary On
Versions: 1 2 3 4 5 6 7 8 9 10 11 12 13 14 15 16 17 18 19 20 21 22 23 24 25 26 27 28 29 30 31 32 33 34 35 36 37 38 39 40 41 42 43 44 45 46 47 48 49 50
000
NZUS99 KSGF 131307
HRRSGF

HOURLY WEATHER
NATIONAL WEATHER SERVICE SPRINGFIELD MO
800 AM CDT SUN JUL 13 2014

......SGF CWA......

CITY           SKY/WX    TMP DP  RH WIND       PRES   REMARKS
SPRINGFIELD    CLOUDY    77  66  68 W6        30.06R
JOPLIN         SUNNY     80  65  59 SW10      30.05S
WEST PLAINS    CLOUDY    75  70  84 SW5       30.09S
ROLLA          PTSUNNY   77  67  71 VRB7      30.04F
OSAGE BEACH    PTSUNNY   75  68  78 S7        30.05F
BRANSON        PTSUNNY   79  66  65 SW13      30.09S

......SURROUNDING SGF CWA......

CITY           SKY/WX    TMP DP  RH WIND       PRES   REMARKS
CHANUTE        SUNNY     72  63  73 E5        30.04S
PARSONS        MOSUNNY   74  64  71 S6        30.04R
COFFEYVILLE    SUNNY     75  65  70 S9        30.02F
EMPORIA        PTSUNNY   74  67  78 E6        30.02R
GROVE OK       SUNNY     79  68  69 CALM      30.07S
ROGERS AR      CLOUDY    78  67  68 S7        30.11S
SILOAM SPRINGS MOSUNNY   75  64  69 SW7       30.11S
HARRISON AR    MOSUNNY   81  66  60 W7        30.09S
NEAR YELLVILLE SUNNY     73  68  83 CALM      30.07S

......KANSAS AND MISSOURI......

CITY           SKY/WX    TMP DP  RH WIND       PRES   REMARKS
KANSAS CTY INT LGT RAIN  71  69  93 SE3       30.01F
DOWNTOWN KC    LGT RAIN  73  69  87 SW6       30.00F
COLUMBIA       CLOUDY    76  68  76 NW9       30.03R
SEDALIA        PTSUNNY   78  71  79 NW3       30.03F
ST JOSEPH      CLOUDY    73  71  93 CALM      30.02S
ST LOUIS       PTSUNNY   83  70  64 CALM      30.01F
SPIRIT OF STL  PTSUNNY   80  71  74 SW5       30.00S
KIRKSVILLE     CLOUDY    72  70  93 S3        30.03R
WICHITA        PTSUNNY   74  60  61 W6        30.01R
TOPEKA         CLOUDY    73  71  93 N5        30.02R
OLATHE         LGT RAIN  72  69  90 SE8       30.02F

......TENNESSEE......

CITY           SKY/WX    TMP DP  RH WIND       PRES   REMARKS
MEMPHIS        MOSUNNY   81  73  76 S3        30.11R
NASHVILLE      MOSUNNY   79  69  71 S3        30.13R

......ARKANSAS.......

CITY           SKY/WX    TMP DP  RH WIND       PRES   REMARKS
FAYETTEVILLE   MOSUNNY   76  70  82 S6        30.11S
FT SMITH       SUNNY     76  71  85 CALM      30.07S
LITTLE ROCK    SUNNY     79  72  79 SW7       30.09R

......OKLAHOMA.......

CITY           SKY/WX    TMP DP  RH WIND       PRES   REMARKS
TULSA          MOSUNNY   80  65  59 S9        30.03F
MCALESTER      PTSUNNY   76  69  79 SW5       30.09S
OKLAHOMA CITY  SUNNY     75  64  68 S8        30.07S

......IOWA............

CITY           SKY/WX    TMP DP  RH WIND       PRES   REMARKS
DES MOINES     MOSUNNY   71  67  87 NW7       30.02R
QUAD CITIES    CLOUDY    68  65  90 W7        29.99R

......ILLINOIS........

CITY           SKY/WX    TMP DP  RH WIND       PRES   REMARKS
QUINCY         CLOUDY    73  71  93 NW8       30.00S
CHICAGO        PTSUNNY   68  62  81 W9        29.95R



USA.gov is the U.S. government's official web portal to all federal, state and local government web resources and services.